Content
SEND FEEDBACK

Daily
Averages
Monthly
Summary
United States of America

LIHUE, HAWAII


Home > North America > United States > Hawaii
Elevation: 103 feet     Latitude: 21 59N     Longitude: 159 21W

WEATHER
 
SELECT A DAY
Number of Records: 219,459;   Date Range: 1/1/95 - 9/16/14
 
SHARE

PRINT THIS DATA

[ ← Previous Day ]
WEATHER ALMANAC - SEPTEMBER 28, 2013
[ Next Day → ]
[ °C ]   °F
Weather ElementAverageHighLow
Temperature80.5 °F84.9 °F (11:53 am)78.1 °F (2:53 am)
Dewpoint70.2 °F71.6 °F (8:10 am)68 °F (2:03 am)
Humidity70.9 %79 % (5:53 am)59 % (12:53 pm)
Barometer30.10 in30.14 in (9:03 am)30.05 in (4:53 pm)
Wind Speed15.3 mph20.7 mph (6:53 pm)
Weather ElementAverage
Visibility10 mi
Wind DirectionENE (56.3 °)

Weather ElementTotal
Precipitation---
Cooling Degree Days16.5 (Base 65)
Growing Degree Days31.5 (Base 50)
Averaged from 35 records on September 28, 2013
WEATHER CONDITIONS BREAKOUT
WIND DIRECTION BREAKOUT
WEATHER BY HOUR - SEPTEMBER 28, 2013
[ °C ]   °F
Local TimeTemperatureDewpointHumidityBarometerVisibilityWind DirectionWind SpeedGust SpeedPrecipitationEventsConditions
1:53 AM79.0 °F69.1 °F72 %30.11 in10.0 miNE (50°)12.7 mphMostly Cloudy
2:03 AM78.8 °F68.0 °F69 %30.11 in10.0 miENE (60°)12.7 mphMostly Cloudy
2:13 AM78.8 °F69.8 °F74 %30.11 in10.0 miENE (60°)12.7 mphMostly Cloudy
2:21 AM78.8 °F69.8 °F74 %30.11 in10.0 miNE (50°)12.7 mphScattered Clouds
2:53 AM78.1 °F69.1 °F74 %30.09 in10.0 miENE (60°)11.5 mphScattered Clouds
3:53 AM78.1 °F70.0 °F76 %30.08 in10.0 miNE (50°)12.7 mphPartly Cloudy
4:53 AM78.1 °F70.0 °F76 %30.08 in10.0 miNE (50°)12.7 mphPartly Cloudy
5:53 AM78.1 °F71.1 °F79 %30.09 in10.0 miNE (40°)12.7 mphOvercast
6:53 AM78.1 °F70.0 °F76 %30.10 in10.0 miENE (60°)15.0 mphScattered Clouds
7:53 AM80.1 °F70.0 °F71 %30.11 in10.0 miENE (60°)12.7 mphPartly Cloudy
8:10 AM78.8 °F71.6 °F78 %30.12 in10.0 miENE (60°)13.8 mph0.00 inRainLight Rain
8:41 AM82.4 °F71.6 °F70 %30.13 in10.0 miENE (70°)13.8 mph0.00 inScattered Clouds
8:53 AM81.0 °F70.0 °F69 %30.13 in10.0 miENE (60°)13.8 mph0.00 inScattered Clouds
9:03 AM82.4 °F69.8 °F66 %30.14 in10.0 miENE (70°)13.8 mphMostly Cloudy
9:10 AM82.4 °F71.6 °F70 %30.14 in10.0 miENE (70°)13.8 mphScattered Clouds
9:53 AM82.9 °F70.0 °F65 %30.13 in10.0 miENE (70°)15.0 mphPartly Cloudy
10:38 AM82.4 °F71.6 °F70 %30.13 in10.0 miENE (60°)15.0 mphMostly Cloudy
10:53 AM84.0 °F71.1 °F65 %30.12 in10.0 miENE (60°)17.3 mphScattered Clouds
11:53 AM84.9 °F70.0 °F61 %30.11 in10.0 miENE (70°)16.1 mphScattered Clouds
12:53 PM84.9 °F69.1 °F59 %30.09 in10.0 miENE (60°)16.1 mphClear
1:53 PM84.9 °F70.0 °F61 %30.07 in10.0 miNE (50°)16.1 mphPartly Cloudy
2:53 PM84.9 °F71.1 °F63 %30.06 in10.0 miNE (50°)18.4 mphScattered Clouds
3:53 PM84.0 °F70.0 °F63 %30.06 in10.0 miENE (60°)17.3 mphPartly Cloudy
4:53 PM82.0 °F70.0 °F67 %30.05 in10.0 miNE (50°)17.3 mphPartly Cloudy
5:53 PM80.1 °F70.0 °F71 %30.07 in10.0 miNE (50°)19.6 mphScattered Clouds
6:53 PM79.0 °F70.0 °F74 %30.08 in10.0 miNE (50°)20.7 mphScattered Clouds
7:53 PM79.0 °F69.1 °F72 %30.10 in10.0 miNE (50°)19.6 mphClear
8:53 PM79.0 °F69.1 °F72 %30.12 in10.0 miNE (50°)17.3 mphScattered Clouds
9:53 PM79.0 °F70.0 °F74 %30.12 in10.0 miNE (50°)16.1 mphMostly Cloudy
10:53 PM79.0 °F70.0 °F74 %30.11 in10.0 miNE (50°)15.0 mphMostly Cloudy
11:16 PM78.8 °F69.8 °F74 %30.11 in10.0 miNE (50°)16.1 mphMostly Cloudy
11:31 PM78.8 °F69.8 °F74 %30.11 in10.0 miNE (50°)17.3 mphMostly Cloudy
11:38 PM78.8 °F71.6 °F78 %30.11 in10.0 miENE (60°)13.8 mphMostly Cloudy
11:45 PM78.8 °F71.6 °F78 %30.11 in10.0 miNE (50°)16.1 mphScattered Clouds
11:53 PM79.0 °F70.0 °F74 %30.10 in10.0 miENE (60°)17.3 mphMostly Cloudy
Hourly data recorded from PHLI, located miles away from Lihue, Hawaii







STORIES FROM OUR PARTNERS